Вернуться в каталог

STARLINK-38071

АктивенСвязьSSO
NORAD 69992·PAYLOAD·🇺🇸 United States

Запущен Jul 11, 2026 с Vandenberg Space Force Base

Loading…

Ближайшие Пролёты (ближайшие 24 часа)

TLE

СвежийSource: CelesTrak SupGP

Эпоха: Sep 14, 2026, 22:49 UTC

1 69992C 26159T   26257.95118056 -.02568600  00000+0 -35691-1 0  2575
2 69992  97.2849  99.7288 0002161  96.4117  94.8351 15.58337758    10

Отслеживайте STARLINK-38071 в реальном времени с AllMySat

Download on the App Store